Weather History for Girona, Spain

Change the Weather History Date:

Monday, February 25, 2013

  Actual Average Record
Temperature  
Mean Temperature 39 °F -  
Max Temperature 50 °F 62 °F 68 °F (1997)
Min Temperature 28 °F 39 °F 28 °F (2013)
Degree Days  
Heating Degree Days 26    
Moisture  
Dew Point 26 °F    
Average Humidity 73    
Maximum Humidity 100    
Minimum Humidity 25    
Precipitation  
Precipitation 0.00 in 0.07 in - ()
Sea Level Pressure  
Sea Level Pressure 30.01 in    
Wind  
Wind Speed 2 mph ()    
Max Wind Speed 10 mph    
Max Gust Speed 20 mph    
Visibility 6.6 miles    
Events Rain    
Averages and records for this station are not official NWS values.
T = Trace of Precipitation, MM = Missing Value Source: Averaged Metar Reports

Daily Weather History Graph

Daily Weather History Graph

Search for Another Location

Airport:

Trip Planner

Search our weather history database for the weather conditions in past years. The results will help you decide how hot, cold, wet, or windy it might be!

Date:

Astronomy

Feb. 25, 2013 Rise Set
Actual Time 7:30 AM CET 6:34 PM CET
Civil Twilight 7:02 AM CET 7:02 PM CET
Nautical Twilight 6:29 AM CET 7:34 PM CET
Astronomical Twilight 5:57 AM CET 8:07 PM CET
Moon 6:32 PM CET 6:51 AM CET
Length of Visible Light 12h 00m
Length of Day
11h 04m
Full, 100% of the Moon is Illuminated
Feb 25
Full
Feb 25
Full
Mar 4
Last Quarter
Mar 11
New
Mar 19
First Quarter

Hourly Weather History & Observations

Time (CET) Temp. Windchill Dew Point Humidity Pressure Visibility Wind Dir Wind Speed Gust Speed Precip Events Conditions
12:00 AM 32.0 °F - 21.2 °F 64% 29.98 in - North 2.3 mph - N/A   Clear
12:30 AM 32.0 °F 28.7 °F 19.4 °F 60% 29.95 in - NNW 3.5 mph - N/A   Clear
1:00 AM 32 °F - 26 °F 68% 29.99 in - West 2.3 mph - -  
1:00 AM 30.2 °F - 24.8 °F 80% 29.98 in - West 1.2 mph - N/A   Clear
1:30 AM 30.2 °F - 24.8 °F 80% 29.98 in - WNW 2.3 mph - N/A   Clear
2:30 AM 30.2 °F - 24.8 °F 80% 29.95 in - Variable 1.2 mph - N/A   Clear
3:00 AM 28.4 °F - 24.8 °F 86% 29.95 in - Variable 1.2 mph - N/A   Clear
3:30 AM 28.4 °F - 24.8 °F 86% 29.95 in - Calm Calm - N/A   Clear
4:00 AM 28.4 °F - 26.6 °F 93% 29.95 in - West 2.3 mph - N/A   Clear
4:30 AM 30.2 °F - 26.6 °F 86% 29.95 in - WNW 2.3 mph - N/A   Clear
5:00 AM 30.2 °F - 26.6 °F 86% 29.95 in - Variable 1.2 mph - N/A   Clear
5:30 AM 28.4 °F - 26.6 °F 93% 29.95 in - Variable 1.2 mph - N/A   Clear
6:00 AM 28.4 °F - 26.6 °F 93% 29.95 in - Variable 1.2 mph - N/A   Clear
6:30 AM 28.4 °F - 26.6 °F 93% 29.95 in 5.6 mi Calm Calm - N/A   Unknown
7:00 AM 31 °F - 27 °F 80% 29.98 in 6 mi NE 1.2 mph - -   Mist
7:00 AM 28.4 °F - 26.6 °F 93% 29.98 in 5.6 mi Calm Calm - N/A   Unknown
7:30 AM 28.4 °F - 26.6 °F 93% 29.98 in - Calm Calm - N/A   Clear
8:00 AM 30.2 °F - 26.6 °F 86% 29.98 in - Calm Calm - N/A   Clear
8:30 AM 30.2 °F - 26.6 °F 86% 30.01 in 6.2 mi Variable 1.2 mph - N/A   Partly Cloudy
9:00 AM 30.2 °F - 26.6 °F 86% 30.01 in 6.2 mi Variable 1.2 mph - N/A   Partly Cloudy
9:30 AM 32.0 °F - 28.4 °F 87% 30.01 in 6.2 mi West 1.2 mph - N/A   Scattered Clouds
10:00 AM 33.8 °F - 26.6 °F 75% 30.01 in 6.2 mi Calm Calm - N/A   Scattered Clouds
10:30 AM 35.6 °F - 26.6 °F 70% 30.01 in 6.2 mi Calm Calm - N/A   Mostly Cloudy
11:00 AM 37.4 °F - 24.8 °F 60% 30.01 in 6.2 mi Variable 1.2 mph - N/A   Mostly Cloudy
11:30 AM 39.2 °F - 23.0 °F 52% 30.01 in 6.2 mi Calm Calm - N/A   Mostly Cloudy
12:00 PM 41.0 °F - 23.0 °F 49% 30.04 in 6.2 mi Calm Calm - N/A   Mostly Cloudy
12:30 PM 42.8 °F - 21.2 °F 42% 30.01 in 6.2 mi South 1.2 mph - N/A   Scattered Clouds
1:00 PM 48 °F - 23 °F 25% 30.01 in 16 mi ESE 2.3 mph - -   Partly Cloudy
1:00 PM 44.6 °F - 19.4 °F 37% 30.01 in 6.2 mi East 2.3 mph - N/A   Scattered Clouds
1:30 PM 44.6 °F 42.2 °F 15.8 °F 31% 30.01 in 6.2 mi SSW 4.6 mph - N/A   Scattered Clouds
2:00 PM 46.4 °F 44.3 °F 19.4 °F 34% 29.98 in 6.2 mi SSE 4.6 mph - N/A   Scattered Clouds
2:30 PM 46.4 °F 45.2 °F 21.2 °F 37% 29.98 in 6.2 mi East 3.5 mph - N/A   Scattered Clouds
3:00 PM 46.4 °F 45.2 °F 17.6 °F 32% 29.98 in 6.2 mi SE 3.5 mph - N/A   Scattered Clouds
3:30 PM 46.4 °F 44.3 °F 24.8 °F 43% 29.98 in 6.2 mi SE 4.6 mph 16.1 mph N/A   Scattered Clouds
4:00 PM 46.4 °F 41.5 °F 28.4 °F 50% 30.01 in 6.2 mi South 10.4 mph - N/A   Scattered Clouds
4:30 PM 44.6 °F 41.4 °F 23.0 °F 43% 30.01 in 6.2 mi South 5.8 mph - N/A   Scattered Clouds
5:00 PM 39.2 °F 32.5 °F 30.2 °F 70% 30.01 in 6.2 mi ENE 10.4 mph - N/A Rain Light Rain Showers
5:30 PM 37.4 °F 31.4 °F 32.0 °F 81% 30.04 in 6.2 mi East 8.1 mph 19.6 mph N/A   Mostly Cloudy
6:00 PM 35.6 °F 31.7 °F 32.0 °F 87% 30.04 in 6.2 mi East 4.6 mph - N/A Rain Light Hail
6:30 PM 37.4 °F 34.9 °F 32.0 °F 81% 30.06 in 6.2 mi SSE 3.5 mph - N/A   Mostly Cloudy
7:00 PM 39 °F - 32 °F 67% 30.07 in 12 mi SSW 5.8 mph - -   Partly Cloudy
7:00 PM 37.4 °F 32.8 °F 30.2 °F 75% 30.06 in 6.2 mi SSW 5.8 mph - N/A   Mostly Cloudy
7:30 PM 35.6 °F 32.8 °F 30.2 °F 81% 30.06 in 6.2 mi South 3.5 mph - N/A   Mostly Cloudy
8:00 PM 35.6 °F - 32.0 °F 87% 30.06 in 6.2 mi South 1.2 mph - N/A   Mostly Cloudy
8:30 PM 35.6 °F - 30.2 °F 81% 30.06 in 6.2 mi Variable 1.2 mph - N/A   Mostly Cloudy
9:00 PM 33.8 °F - 30.2 °F 87% 30.06 in 6.2 mi Calm Calm - N/A   Mostly Cloudy
9:30 PM 32.0 °F - 30.2 °F 93% 30.09 in 6.2 mi West 1.2 mph - N/A   Scattered Clouds
10:00 PM 32.0 °F - 32.0 °F 100% 30.09 in 6.2 mi NW 2.3 mph - N/A   Scattered Clouds
10:30 PM 32.0 °F - 30.2 °F 93% 30.09 in 6.2 mi Variable 1.2 mph - N/A   Partly Cloudy
11:00 PM 30.2 °F - 30.2 °F 100% 30.09 in 6.2 mi NNW 1.2 mph - N/A   Partly Cloudy
11:30 PM 30.2 °F - 30.2 °F 100% 30.09 in 6.2 mi West 1.2 mph - N/A   Partly Cloudy